TimeCDT,TemperatureF,Dew PointF,Humidity,Sea Level PressureIn,VisibilityMPH,Wind Direction,Wind SpeedMPH,Gust SpeedMPH,PrecipitationIn,Events,Conditions,WindDirDegrees,DateUTC
12:52 AM,64.0,61.0,90,29.76,10.0,North,8.1,-,N/A,,Scattered Clouds,360,2013-06-30 05:52:00
1:52 AM,63.0,57.9,84,29.76,10.0,North,9.2,-,N/A,,Mostly Cloudy,360,2013-06-30 06:52:00
2:52 AM,64.0,59.0,84,29.77,10.0,North,8.1,-,N/A,,Overcast,360,2013-06-30 07:52:00
3:52 AM,64.0,57.9,80,29.77,10.0,North,10.4,-,N/A,,Overcast,360,2013-06-30 08:52:00
4:52 AM,63.0,57.9,84,29.79,10.0,NNW,6.9,-,N/A,,Overcast,340,2013-06-30 09:52:00
5:52 AM,63.0,57.9,84,29.80,10.0,North,8.1,-,N/A,,Overcast,350,2013-06-30 10:52:00
6:18 AM,62.6,59.0,88,29.82,10.0,North,6.9,-,N/A,,Overcast,350,2013-06-30 11:18:00
6:52 AM,62.1,59.0,90,29.82,10.0,NNW,6.9,-,0.00,,Overcast,340,2013-06-30 11:52:00
7:25 AM,62.6,59.0,88,29.83,10.0,NNW,8.1,-,0.00,,Overcast,340,2013-06-30 12:25:00
7:52 AM,63.0,60.1,90,29.83,9.0,North,10.4,-,0.00,Rain,Light Rain,350,2013-06-30 12:52:00
8:05 AM,62.6,60.8,94,29.84,9.0,North,10.4,-,0.00,Rain,Light Rain,350,2013-06-30 13:05:00
8:52 AM,64.9,61.0,87,29.85,10.0,North,8.1,-,0.00,,Overcast,350,2013-06-30 13:52:00
9:07 AM,66.2,62.6,88,29.86,10.0,North,12.7,17.3,N/A,,Overcast,10,2013-06-30 14:07:00
9:17 AM,66.2,62.6,88,29.86,10.0,North,10.4,-,N/A,,Overcast,10,2013-06-30 14:17:00
9:52 AM,68.0,62.1,81,29.86,10.0,NNE,10.4,-,N/A,,Overcast,20,2013-06-30 14:52:00
10:08 AM,69.8,62.6,78,29.86,10.0,North,12.7,-,N/A,,Overcast,10,2013-06-30 15:08:00
10:52 AM,71.1,63.0,75,29.86,10.0,North,10.4,-,N/A,,Overcast,360,2013-06-30 15:52:00
11:52 AM,71.1,62.1,73,29.86,10.0,North,11.5,-,N/A,,Overcast,10,2013-06-30 16:52:00
12:52 PM,72.0,62.1,71,29.87,10.0,NNE,12.7,-,N/A,,Overcast,20,2013-06-30 17:52:00
1:52 PM,73.0,61.0,66,29.87,10.0,North,10.4,-,N/A,,Mostly Cloudy,10,2013-06-30 18:52:00
2:52 PM,68.0,61.0,78,29.88,10.0,NE,8.1,-,0.01,Rain,Light Rain,50,2013-06-30 19:52:00
3:52 PM,72.0,64.0,76,29.87,10.0,North,8.1,-,0.00,,Scattered Clouds,10,2013-06-30 20:52:00
4:52 PM,73.9,62.1,66,29.88,10.0,NNE,6.9,-,N/A,,Partly Cloudy,20,2013-06-30 21:52:00
5:52 PM,78.1,62.1,58,29.88,10.0,NNE,11.5,-,N/A,,Clear,30,2013-06-30 22:52:00
6:52 PM,77.0,59.0,54,29.89,10.0,NNE,10.4,-,N/A,,Clear,30,2013-06-30 23:52:00
7:52 PM,73.9,61.0,64,29.89,10.0,North,5.8,-,N/A,,Scattered Clouds,10,2013-07-01 00:52:00
8:52 PM,70.0,62.1,76,29.90,10.0,North,6.9,-,N/A,,Clear,360,2013-07-01 01:52:00
9:52 PM,70.0,60.1,71,29.93,10.0,NNE,10.4,-,N/A,,Mostly Cloudy,20,2013-07-01 02:52:00
10:52 PM,69.1,52.0,54,29.94,10.0,NNE,13.8,-,N/A,,Partly Cloudy,30,2013-07-01 03:52:00
11:52 PM,66.9,50.0,54,29.94,10.0,NNE,11.5,-,N/A,,Mostly Cloudy,20,2013-07-01 04:52:00